Indianapolis, IN

10:03 PM EST on February 26, 2017 (GMT -0500)
Indianapolis International

Weather History for KIND - February, 2014

Change the Weather History Date:

Friday, February 28, 2014

  Actual Average Record
Temperature  
Mean Temperature 22 °F 36 °F  
Max Temperature 36 °F 45 °F 68 °F (1895)
Min Temperature 8 °F 28 °F 2 °F (1993)
Degree Days  
Heating Degree Days 43 29  
Month to date heating degree days 1187 922  
Since 1 July heating degree days 4797 4143  
Cooling Degree Days 0 0  
Month to date cooling degree days 0 0  
Year to date cooling degree days 0 0  
Moisture  
Dew Point 3 °F    
Average Humidity 50    
Maximum Humidity 73    
Minimum Humidity 26    
Precipitation  
Precipitation 0.00 in 0.09 in 1.17 in (2011)
Month to date precipitation 2.45 2.32  
Year to date precipitation 4.79 4.98  
Snow  
Snow 0.00 in 0.20 in 5.40 in (1984)
Month to date snowfall 16.5 6.5  
Since 1 July snowfall 52.3 23.1  
Snow Depth 0.00 in    
Sea Level Pressure  
Sea Level Pressure 30.16 in    
Wind  
Wind Speed 10 mph (ESE)    
Max Wind Speed 18 mph    
Max Gust Speed 23 mph    
Visibility 10 miles    
Events      
T = Trace of Precipitation, MM = Missing Value Source: NWS Daily Summary

Daily Weather History Graph

Daily Weather History Graph

Search for Another Location

Airport or City:

Trip Planner

Search our weather history database for the weather conditions in past years. The results will help you decide how hot, cold, wet, or windy it might be!

Date:

Astronomy

Feb. 28, 2014 Rise Set
Actual Time 7:19 AM EST 6:36 PM EST
Civil Twilight 6:52 AM EST 7:03 PM EST
Nautical Twilight 6:21 AM EST 7:34 PM EST
Astronomical Twilight 5:50 AM EST 8:05 PM EST
Moon 6:33 AM EST (2/28) 6:12 PM EST (2/28)
Length of Visible Light 12h 10m
Length of Day
11h 16m
Waning Crescent, 1% of the Moon is Illuminated
Feb 28
Waning Crescent
Mar 1
New
Mar 8
First Quarter
Mar 16
Full
Mar 23
Last Quarter

Hourly Weather History & Observations

Time (EST) Temp. Windchill Dew Point Humidity Pressure Visibility Wind Dir Wind Speed Gust Speed Precip Events Conditions
12:54 AM 9.0 °F -4.2 °F -2.0 °F 61% 30.21 in 10.0 mi ENE 9.2 mph - N/A   Clear
1:54 AM 9.0 °F -4.2 °F -2.0 °F 61% 30.22 in 10.0 mi ENE 9.2 mph - N/A   Clear
2:54 AM 9.0 °F -5.1 °F -0.9 °F 64% 30.22 in 10.0 mi East 10.4 mph - N/A   Clear
3:54 AM 8.1 °F -4.3 °F -0.9 °F 67% 30.22 in 10.0 mi East 8.1 mph - N/A   Partly Cloudy
4:54 AM 8.1 °F -6.2 °F -0.0 °F 70% 30.21 in 10.0 mi East 10.4 mph - N/A   Scattered Clouds
5:54 AM 8.1 °F -6.2 °F -0.0 °F 70% 30.22 in 10.0 mi East 10.4 mph - N/A   Partly Cloudy
6:54 AM 8.1 °F -6.2 °F 1.0 °F 73% 30.23 in 10.0 mi ESE 10.4 mph - N/A   Partly Cloudy
7:54 AM 10.0 °F -1.9 °F 1.9 °F 70% 30.25 in 10.0 mi ESE 8.1 mph - N/A   Mostly Cloudy
8:54 AM 12.9 °F -2.8 °F 3.0 °F 65% 30.25 in 10.0 mi ESE 15.0 mph - N/A   Mostly Cloudy
9:54 AM 17.1 °F 3.0 °F 3.0 °F 54% 30.25 in 10.0 mi SE 13.8 mph - N/A   Scattered Clouds
10:54 AM 21.9 °F 8.7 °F 5.0 °F 48% 30.23 in 10.0 mi SE 15.0 mph - N/A   Scattered Clouds
11:54 AM 25.0 °F 13.6 °F 3.9 °F 41% 30.22 in 10.0 mi South 12.7 mph - N/A   Scattered Clouds
12:54 PM 28.9 °F 18.2 °F 3.0 °F 33% 30.18 in 10.0 mi SSE 13.8 mph - N/A   Scattered Clouds
1:54 PM 30.9 °F 20.7 °F 3.0 °F 31% 30.16 in 10.0 mi SE 13.8 mph - N/A   Partly Cloudy
2:54 PM 33.1 °F 23.0 °F 3.9 °F 29% 30.12 in 10.0 mi SSE 15.0 mph - N/A   Partly Cloudy
3:54 PM 34.0 °F 24.6 °F 3.9 °F 28% 30.09 in 10.0 mi SSE 13.8 mph - N/A   Partly Cloudy
4:54 PM 35.1 °F 25.5 °F 3.9 °F 27% 30.09 in 10.0 mi SE 15.0 mph - N/A   Mostly Cloudy
5:54 PM 34.0 °F 26.0 °F 5.0 °F 30% 30.07 in 10.0 mi SE 10.4 mph - N/A   Mostly Cloudy
6:54 PM 30.9 °F 23.5 °F 6.1 °F 35% 30.07 in 10.0 mi SE 8.1 mph - N/A   Mostly Cloudy
7:54 PM 28.9 °F 21.9 °F 8.1 °F 41% 30.08 in 10.0 mi SE 6.9 mph - N/A   Scattered Clouds
8:54 PM 30.0 °F 24.1 °F 8.1 °F 40% 30.07 in 10.0 mi SE 5.8 mph - N/A   Scattered Clouds
9:54 PM 28.9 °F 23.9 °F 8.1 °F 41% 30.09 in 10.0 mi SE 4.6 mph - N/A   Scattered Clouds
10:54 PM 28.9 °F 25.2 °F 9.0 °F 43% 30.09 in 10.0 mi ESE 3.5 mph - N/A   Scattered Clouds
11:54 PM 28.0 °F 22.8 °F 10.0 °F 47% 30.08 in 10.0 mi ESE 4.6 mph - N/A   Mostly Cloudy